• In India
  • List of Countries
  • For 7 days
  • Water Temperature
  • Satellite Maps
  • Weather Map
  • Weather Widgets
  • user-avatar
    Login

    Hourly Weather Popivka

    Today, 19 October, Friday

    Time Temperature Precipitation Wind Pressure Humidity
    00:00 +15°C° 0 mm 2 mps 755 mmHg 56%
    01:00 +15°C° 0 mm 1 mps 754 mmHg 57%
    02:00 +14°C° 0 mm 1 mps 754 mmHg 58%
    03:00 +14°C° 0 mm 1 mps 754 mmHg 59%
    04:00 +13°C° 0 mm 1 mps 754 mmHg 60%
    05:00 +13°C° 0 mm 1 mps 754 mmHg 61%
    06:00 +14°C° 0 mm 1 mps 754 mmHg 59%
    07:00 +15°C° 0 mm 1 mps 754 mmHg 57%
    08:00 +15°C° 0 mm 1 mps 754 mmHg 55%
    09:00 +18°C° 0 mm 1 mps 754 mmHg 50%
    10:00 +19°C° 0 mm 1 mps 754 mmHg 45%
    11:00 +21°C° 0 mm 1 mps 753 mmHg 40%
    12:00 +22°C° 0 mm 1 mps 753 mmHg 38%
    13:00 +22°C° 0 mm 1 mps 753 mmHg 36%
    14:00 +23°C° 0 mm 1 mps 753 mmHg 34%
    15:00 +22°C° 0 mm 1 mps 753 mmHg 37%
    16:00 +21°C° 0 mm 1 mps 752 mmHg 39%
    17:00 +20°C° 0 mm 1 mps 752 mmHg 42%
    18:00 +19°C° 0 mm 1 mps 752 mmHg 44%
    19:00 +18°C° 0 mm 2 mps 752 mmHg 45%
    20:00 +17°C° 0 mm 2 mps 752 mmHg 47%
    21:00 +17°C° 0 mm 2 mps 752 mmHg 49%
    22:00 +16°C° 0 mm 2 mps 752 mmHg 50%
    23:00 +16°C° 0 mm 2 mps 752 mmHg 52%

    Tomorrow, 20 October, Saturday

    Time Temperature Precipitation Wind Pressure Humidity
    00:00 +16°C° 0 mm 2 mps 752 mmHg 54%
    01:00 +15°C° 0 mm 2 mps 752 mmHg 56%
    02:00 +15°C° 0 mm 2 mps 752 mmHg 58%
    03:00 +15°C° 0 mm 2 mps 752 mmHg 60%
    04:00 +14°C° 0 mm 2 mps 752 mmHg 62%
    05:00 +14°C° 0 mm 2 mps 752 mmHg 64%
    06:00 +14°C° 0 mm 3 mps 752 mmHg 64%
    07:00 +14°C° 0 mm 3 mps 753 mmHg 64%
    08:00 +14°C° 0 mm 3 mps 753 mmHg 63%
    09:00 +17°C° 0 mm 3 mps 753 mmHg 59%
    10:00 +18°C° 0 mm 4 mps 753 mmHg 54%
    11:00 +19°C° 0 mm 4 mps 753 mmHg 50%
    12:00 +20°C° 0 mm 4 mps 753 mmHg 48%
    13:00 +20°C° 0 mm 4 mps 753 mmHg 47%
    14:00 +21°C° 0 mm 4 mps 753 mmHg 45%
    15:00 +20°C° 0 mm 4 mps 753 mmHg 50%
    16:00 +19°C° 0 mm 3 mps 753 mmHg 54%
    17:00 +18°C° 0 mm 3 mps 753 mmHg 59%
    18:00 +17°C° 0 mm 3 mps 753 mmHg 63%
    19:00 +16°C° 0 mm 3 mps 753 mmHg 68%
    20:00 +16°C° 0 mm 3 mps 753 mmHg 72%
    21:00 +14°C° 0 mm 3 mps 753 mmHg 75%
    22:00 +13°C° 0 mm 3 mps 753 mmHg 79%
    23:00 +13°C° 0 mm 3 mps 753 mmHg 83%

    Day after tomorrow, 21 October, Sunday

    Time Temperature Precipitation Wind Pressure Humidity
    00:00 +12°C° 0 mm 3 mps 753 mmHg 86%
    01:00 +12°C° 0 mm 3 mps 753 mmHg 89%
    02:00 +11°C° 0 mm 3 mps 753 mmHg 92%
    03:00 +11°C° 0 mm 3 mps 753 mmHg 93%
    04:00 +11°C° 0 mm 4 mps 753 mmHg 94%
    05:00 +10°C° 0 mm 4 mps 752 mmHg 95%
    06:00 +11°C° 0 mm 4 mps 753 mmHg 92%
    07:00 +10°C° 0 mm 5 mps 753 mmHg 89%
    08:00 +10°C° 0 mm 5 mps 753 mmHg 87%
    09:00 +12°C° 0 mm 5 mps 753 mmHg 81%
    10:00 +13°C° 0 mm 5 mps 753 mmHg 76%
    11:00 +14°C° 0 mm 5 mps 753 mmHg 70%
    12:00 +15°C° 0 mm 5 mps 753 mmHg 69%
    13:00 +15°C° 0 mm 5 mps 753 mmHg 67%
    14:00 +16°C° 0 mm 5 mps 752 mmHg 65%
    15:00 +15°C° 0 mm 5 mps 753 mmHg 67%
    16:00 +14°C° 0 mm 5 mps 753 mmHg 68%
    17:00 +14°C° 0 mm 4 mps 753 mmHg 70%
    18:00 +13°C° 0 mm 4 mps 753 mmHg 73%
    19:00 +13°C° 0 mm 4 mps 753 mmHg 75%
    20:00 +12°C° 0 mm 4 mps 754 mmHg 77%
    21:00 +12°C° 0 mm 4 mps 754 mmHg 79%
    22:00 +11°C° 0 mm 4 mps 754 mmHg 80%
    23:00 +11°C° 0 mm 4 mps 754 mmHg 82%

    22 October, Monday

    Time Temperature Precipitation Wind Pressure Humidity
    00:00 +10°C° 0 mm 4 mps 754 mmHg 83%
    01:00 +10°C° 0 mm 4 mps 754 mmHg 85%
    02:00 +10°C° 0 mm 4 mps 754 mmHg 86%
    03:00 +8°C° 0 mm 4 mps 754 mmHg 88%
    04:00 +8°C° 0 mm 4 mps 754 mmHg 89%
    05:00 +8°C° 0 mm 4 mps 754 mmHg 90%
    06:00 +8°C° 0 mm 4 mps 754 mmHg 87%
    07:00 +10°C° 0 mm 4 mps 754 mmHg 84%
    08:00 +9°C° 0 mm 5 mps 754 mmHg 82%
    09:00 +12°C° 0 mm 5 mps 754 mmHg 76%
    10:00 +13°C° 0 mm 5 mps 754 mmHg 70%
    11:00 +15°C° 0 mm 5 mps 754 mmHg 65%
    12:00 +15°C° 0 mm 5 mps 754 mmHg 63%
    13:00 +16°C° 0 mm 5 mps 753 mmHg 61%
    14:00 +16°C° 0 mm 5 mps 753 mmHg 59%
    15:00 +16°C° 0 mm 5 mps 753 mmHg 62%
    16:00 +15°C° 0 mm 4 mps 753 mmHg 66%
    17:00 +14°C° 0 mm 3 mps 753 mmHg 69%
    18:00 +13°C° 0 mm 3 mps 753 mmHg 72%
    19:00 +12°C° 0 mm 3 mps 753 mmHg 74%
    20:00 +12°C° 0 mm 3 mps 753 mmHg 77%
    21:00 +11°C° 0 mm 3 mps 753 mmHg 80%
    22:00 +11°C° 0 mm 3 mps 752 mmHg 82%
    23:00 +10°C° 0 mm 3 mps 752 mmHg 85%

    23 October, Tuesday

    Time Temperature Precipitation Wind Pressure Humidity
    00:00 +10°C° 0 mm 3 mps 752 mmHg 87%
    01:00 +9°C° 0 mm 3 mps 752 mmHg 88%
    02:00 +9°C° 0 mm 2 mps 752 mmHg 90%
    03:00 +9°C° 0 mm 2 mps 752 mmHg 91%
    04:00 +8°C° 0 mm 2 mps 751 mmHg 92%
    05:00 +8°C° 0 mm 2 mps 751 mmHg 93%
    06:00 +8°C° 0 mm 3 mps 751 mmHg 90%
    07:00 +9°C° 0 mm 3 mps 751 mmHg 87%
    08:00 +9°C° 0 mm 3 mps 751 mmHg 84%
    09:00 +10°C° 0 mm 3 mps 751 mmHg 77%
    10:00 +12°C° 0 mm 3 mps 751 mmHg 70%
    11:00 +13°C° 0 mm 3 mps 751 mmHg 64%
    12:00 +14°C° 0 mm 3 mps 751 mmHg 60%
    13:00 +14°C° 0 mm 3 mps 750 mmHg 57%
    14:00 +16°C° 0 mm 2 mps 750 mmHg 53%
    15:00 +15°C° 0 mm 2 mps 750 mmHg 55%
    16:00 +14°C° 0 mm 2 mps 750 mmHg 56%
    17:00 +13°C° 0 mm 2 mps 750 mmHg 58%
    18:00 +13°C° 0 mm 2 mps 750 mmHg 59%
    19:00 +12°C° 0 mm 2 mps 750 mmHg 60%
    20:00 +10°C° 0 mm 2 mps 750 mmHg 62%
    21:00 +10°C° 0 mm 2 mps 750 mmHg 62%
    22:00 +9°C° 0 mm 2 mps 750 mmHg 62%
    23:00 +9°C° 0 mm 2 mps 750 mmHg 62%

    24 October, Wednesday

    Time Temperature Precipitation Wind Pressure Humidity
    00:00 +8°C° 0 mm 2 mps 750 mmHg 63%
    01:00 +8°C° 0 mm 2 mps 749 mmHg 64%
    02:00 +8°C° 0 mm 2 mps 749 mmHg 64%
    03:00 +7°C° 0 mm 2 mps 749 mmHg 67%
    04:00 +7°C° 0 mm 2 mps 749 mmHg 69%
    05:00 +6°C° 0 mm 2 mps 749 mmHg 72%
    06:00 +7°C° 0 mm 2 mps 748 mmHg 71%
    07:00 +7°C° 0 mm 2 mps 748 mmHg 69%
    08:00 +8°C° 0 mm 2 mps 748 mmHg 68%
    09:00 +9°C° 0 mm 3 mps 747 mmHg 62%
    10:00 +10°C° 0 mm 3 mps 747 mmHg 57%
    11:00 +12°C° 0 mm 4 mps 746 mmHg 51%
    12:00 +12°C° 0 mm 4 mps 746 mmHg 48%
    13:00 +13°C° 0 mm 5 mps 745 mmHg 45%
    14:00 +13°C° 0 mm 5 mps 744 mmHg 42%
    15:00 +12°C° 0 mm 5 mps 743 mmHg 44%
    16:00 +12°C° 0 mm 5 mps 742 mmHg 46%
    17:00 +11°C° 0 mm 4 mps 742 mmHg 48%
    18:00 +10°C° 0 mm 5 mps 741 mmHg 50%
    19:00 +10°C° 0 mm 6 mps 740 mmHg 53%
    20:00 +9°C° 0 mm 7 mps 739 mmHg 55%
    21:00 +10°C° 0.2 mm 8 mps 739 mmHg 54%
    22:00 +10°C° 0.2 mm 8 mps 738 mmHg 53%
    23:00 +10°C° 0.2 mm 9 mps 737 mmHg 53%
    Show more